Regional Weather Roundup
Issued by NWS

Home | Current Version | Previous Version | Graphics & Text | Print | Product List | Glossary On
Versions: 1 2 3 4 5 6 7 8 9 10 11 12 13 14 15 16 17 18 19 20 21 22 23 24 25 26 27 28 29 30 31 32 33 34 35 36 37 38 39 40 41 42 43 44 45 46 47 48 49 50
000
ASUS45 KBOU 240007
RWRCO

WEATHER ROUNDUP FOR COLORADO
NATIONAL WEATHER SERVICE DENVER/BOULDER CO
500 PM MST SUN NOV 23 2014

NOTE: "FAIR" INDICATES FEW OR NO CLOUDS BELOW 12000 FEET WITH NO
SIGNIFICANT WEATHER AND/OR OBSTRUCTIONS TO VISIBILITY.

COZ001>005-013-030-031-240100-
...NORTHWEST COLORADO...

CITY           SKY/WX    TMP DP  RH WIND       PRES   REMARKS
CRAIG          LGT SNOW  27  19  72 W14       30.01R WCI  16
HAYDEN         MOCLDY    25  12  58 W12       29.97R WCI  14
MEEKER         MOCLDY    29  13  51 NW14G22   30.02R WCI  18
MOUNT WERNER   NOT AVBL
STEAMBOAT SPGS MOCLDY    23  12  62 W17G25    29.95S WCI  10
WALDEN         MOCLDY    18  12  79 W14       29.89R WCI   4
$$

COZ006>008-011-240100-
...WEST CENTRAL VALLEYS...

CITY           SKY/WX    TMP DP  RH WIND       PRES   REMARKS
GRAND JUNCTION CLEAR     35  18  49 NW13      30.04R WCI  26
MONTROSE       PTCLDY    33  16  49 NW13G20   30.05R WCI  24
EAGLE          MOCLDY    27  21  80 SW6       30.01R WCI  20
RIFLE          PTCLDY    27  19  72 VRB3      30.04R
DELTA          PTCLDY    40   8  26 NW7       30.04R
NUCLA          PTCLDY    32  19  59 NW3       30.09R
$$

COZ017>023-064>068-240100-
...SOUTHWEST COLORADO...

CITY           SKY/WX    TMP DP  RH WIND       PRES   REMARKS
DURANGO        PTCLDY    32  11  41 NW20      29.95R WCI  20
CORTEZ         PTCLDY    33  20  58 N15G24    30.04R WCI  23
PAGOSA SPRINGS PTCLDY    32   1  26 NW8G16    29.89R WCI  25
TELLURIDE      NOT AVBL
WOLF CREEK PAS LGT SNOW   9   1  72 MISG      29.85R
$$

COZ009-010-012-014-032>034-037-058>063-240100-
...CENTRAL COLORADO...

CITY           SKY/WX    TMP DP  RH WIND       PRES   REMARKS
ASPEN          FLURRIES  22  16  78 N10G21    29.94S WCI  11
BUENA VISTA    PTCLDY    25   7  46 N15       29.88R WCI  12
COPPER MTN     CLOUDY     9   1  72 NW36G46   29.78S WCI -16
BERTHOUD PASS  HVY SNOW   0  -4  85 MISG      29.72R VSB<1/4
COTTONWOOD PAS PTCLDY    21   0  39 W15G24    29.85R WCI   8
GUNNISON       MOCLDY    25   5  42 NW13G21   29.97R WCI  13
KREMMLING      MOCLDY    23  14  68 N7        29.96R WCI  15
LEADVILLE      LGT SNOW  11   8  88 N8        29.85R VSB 3/4 WCI  -1
MONARCH PASS   PTCLDY     5   1  85 MISG      29.92R
SALIDA         PTCLDY    31  -1  25 NW14      29.96R WCI  20
SUNLIGHT       CLOUDY   N/A N/A N/A MISG      29.94R
WILKERSON PASS CLEAR      9   1  72 N16G26    29.81R WCI  -9
$$

COZ069>075-240100-
...SAN LUIS VALLEY/SANGRE DE CRISTO MOUNTAINS...

CITY           SKY/WX    TMP DP  RH WIND       PRES   REMARKS
ALAMOSA        PTCLDY    29  10  45 NW28G38   29.84R WCI  14
LA VETA PASS   LGT SNOW  18  12  79 MISG      29.80R
SAGUACHE       NOT AVBL
$$

COZ035-036-038>040-240100-
...NORTHERN COLORADO FRONT RANGE...

CITY           SKY/WX    TMP DP  RH WIND       PRES   REMARKS
DENVER INTL AP CLOUDY    33  15  47 N23       29.86R WCI  21
DMNS CITY PARK   N/A     34  19  54 N5G10     29.89R WCI  30
AURORA         MOCLDY    31  17  55 NW18G24   29.88R WCI  20
FRONT RANGE AP NOT AVBL
ERIE MUNI ARPT MOCLDY    32  20  60 N12G17    29.89R WCI  23
BOULDER MUN AP MOCLDY    32  21  64 N9        29.88R WCI  24
CENTENNIAL     LGT SNOW  29  25  85 NW7       29.88R FOG     WCI  22
BROOMFIELD     MOCLDY    34  19  55 N9        29.88R WCI  26
FORT COLLINS   PTCLDY    32  18  55 NW14      29.90R WCI  22
LONGMONT       MOCLDY    33  24  70 N13       29.91R WCI  24
$$

COZ041-046-047-076>085-087-088-240100-
...PIKES PEAK/PALMER DIVIDE AND SOUTHERN FOOTHILLS...

CITY           SKY/WX    TMP DP  RH WIND       PRES   REMARKS
COLO. SPRINGS  LGT SNOW  29  26  89 N7        29.87R VSB 1   WCI  22
A. F. ACADEMY  LGT SNOW  27  25  93 NW8       29.86R VSB 1   WCI  18
ELLICOTT       NOT AVBL
FALCON         NOT AVBL
FORT CARSON    FLURRIES  30  26  82 N8        29.87R WCI  23
LIMON          LGT SNOW  29  25  85 NW14      29.85R FOG     WCI  18
MONUMENT HILL  LGT SNOW  23  23 100 N14G24    29.84R WCI  11
TRINIDAD       MOCLDY    29  23  78 W9        29.85R WCI  20
$$

COZ042>045-048>051-090-091-240100-
...NORTHEAST COLORADO...

CITY           SKY/WX    TMP DP  RH WIND       PRES   REMARKS
GREELEY ARPT   PTCLDY    34  12  40 NW22G33   29.88R WCI  22
AKRON          MOCLDY    35  12  38 NW16      29.80R WCI  25
BURLINGTON     CLEAR     37  10  32 N10       29.78R
WRAY           CLEAR     40   8  26 NW14      29.78R
STERLING       PTCLDY    37  16  41 N14       29.80R
HOLYOKE        CLEAR     41  10  28 NW25G35   29.78R
FORT MORGAN    PTCLDY    33  13  43 NW15      29.85R WCI  23
$$

COZ086-089-092>099-240100-
...SOUTHEAST COLORADO...

CITY           SKY/WX    TMP DP  RH WIND       PRES   REMARKS
PUEBLO         CLOUDY    35  29  78 W10       29.87R WCI  27
LA JUNTA       MOCLDY    40  19  43 N8        29.82R
LAMAR          PTCLDY    39  12  33 N9        29.78R
SPRINGFIELD      N/A     35  12  38 N9        29.79R WCI  28
$$


USA.gov is the U.S. government's official web portal to all federal, state and local government web resources and services.